Location: Ferchesar
(52.6477°N, 12.4298°E)
Time: 22:27:56
(UTC+01:00)

TIGRISAT - Pass Details

Date: 27 October 2021
Orbit: 603 x 689 km, 97.7° (Epoch: 30 November)

Event Time Altitude Azimuth Distance (km) Brightness Sun altitude
Rises 19:32:34 0° 21° (NNE) 2,966 ? -16.1°
Enters shadow 19:33:56 - 27° (NNE) 2,448 ? -16.3°
Exits shadow 19:43:31 - 159° (SSE) 2,297 ? -17.8°
Sets 19:45:02 0° 165° (SSE) 2,870 ? -18.0°
